Date String (YYYY-MM-DD hh:mm:ss) UTC,Instrument flags,absolute air pressure of the measurement (hPa),sample flow rate (lpm),inlet stack bypass flow (lpm),air temperature of the measurement (°C),ambient temperature measured by the external sensor (°C),aerosol sample conditioner tube jacket temperature (°C),OPC LED temperature (°C),internal box temperature (°C),relative humidity of the measurement (%),span deviation,mass concentration of particles derived from Lorenz-Mie calculation of OPC scattering (μg/m³),mass concentration of particles derived from Lorenz-Mie calculation of OPC scattering (μg/m³),mass concentration of particles derived from Lorenz-Mie calculation of OPC scattering (μg/m³)
DateTimeUTC,F1_M11,P_M11,Q1_M11,Q2_M11,T1_M11,T2_M11,T3_M11,T4_M11,T5_M11,U1_M11,ZSPAN_M11,X0_M11,X2_M11,X1_M11
2023-07-09 14:00:00,SystemResetWarning,0831.9,5.00,000.00,030.4,028.8,000.0,038.9,031.7,31.2,0000.0,0012.60,0006.00,0005.13
2023-07-09 14:01:00,SystemResetWarning,0831.9,5.00,000.00,030.4,028.4,000.0,038.8,031.7,31.2,0000.0,0012.99,0005.96,0005.11
2023-07-09 14:02:00,SystemResetWarning,0831.9,5.00,000.00,030.3,026.6,000.0,038.7,031.5,30.7,0000.0,0013.38,0005.94,0005.10
2023-07-09 14:03:00,SystemResetWarning,0831.8,5.01,000.00,030.3,025.4,000.0,038.5,031.3,30.9,0000.0,0013.86,0005.91,0005.09
2023-07-09 14:04:00,SystemResetWarning,0831.9,5.02,000.00,030.2,025.2,000.0,038.5,031.1,31.2,0000.0,0013.64,0005.89,0005.08
2023-07-09 14:05:00,SystemResetWarning,0831.8,5.00,000.00,030.0,025.6,000.0,038.5,030.9,31.9,0000.0,0012.83,0005.84,0005.08
2023-07-09 14:06:00,SystemResetWarning,0831.9,4.99,000.00,029.9,026.0,000.0,038.5,030.9,31.7,0000.0,0012.44,0005.71,0005.06
2023-07-09 14:07:00,SystemResetWarning,0832.0,5.01,000.00,029.9,026.4,000.0,038.5,031.0,32.0,0000.0,0012.45,0005.68,0005.04
2023-07-09 14:08:00,SystemResetWarning,0832.4,5.01,000.00,029.8,026.8,000.0,038.5,031.0,32.0,0000.0,0012.30,0005.68,0005.04
2023-07-09 14:09:00,SystemResetWarning,0831.8,4.99,000.00,029.8,027.1,000.0,038.5,031.0,32.3,0000.0,0012.68,0005.70,0005.03
2023-07-09 14:10:00,SystemResetWarning,0831.7,5.00,000.00,029.8,027.4,000.0,038.5,031.1,32.0,0000.0,0013.15,0005.69,0005.03
2023-07-09 14:11:00,SystemResetWarning,0831.7,5.00,000.00,029.8,027.6,000.0,038.5,031.1,32.4,0000.0,0013.93,0005.73,0005.04
2023-07-09 14:12:00,SystemResetWarning,0831.6,5.01,000.00,029.8,027.7,000.0,038.4,031.1,32.6,0000.0,0014.00,0005.73,0005.05
2023-07-09 14:13:00,SystemResetWarning,0831.7,5.01,000.00,029.8,027.9,000.0,038.4,031.2,32.1,0000.0,0013.67,0005.71,0005.06
2023-07-09 14:14:00,SystemResetWarning,0831.7,4.98,000.00,029.8,028.0,000.0,038.4,031.2,32.3,0000.0,0012.98,0005.74,0005.07
2023-07-09 14:15:00,SystemResetWarning,0831.7,4.99,000.00,029.9,028.1,000.0,038.4,031.2,32.0,0000.0,0012.51,0005.75,0005.08
2023-07-09 14:16:00,SystemResetWarning,0831.7,5.01,000.00,029.9,028.2,000.0,038.4,031.3,32.2,0000.0,0012.16,0005.78,0005.11
2023-07-09 14:17:00,SystemResetWarning,0831.7,5.01,000.00,029.9,028.3,000.0,038.4,031.3,32.0,0000.0,0012.16,0005.81,0005.13
2023-07-09 14:18:00,SystemResetWarning,0831.7,4.99,000.00,029.9,028.4,000.0,038.4,031.3,31.9,0000.0,0012.15,0005.81,0005.15
2023-07-09 14:19:00,SystemResetWarning,0831.7,5.00,000.00,029.9,028.5,000.0,038.5,031.4,33.1,0000.0,0012.29,0005.80,0005.16
2023-07-09 14:20:00,SystemResetWarning,0832.1,5.01,000.00,029.9,028.5,000.0,038.5,031.4,33.2,0000.0,0012.23,0005.80,0005.19
2023-07-09 14:21:00,SystemResetWarning,0832.2,5.01,000.00,029.9,028.6,000.0,038.5,031.4,32.8,0000.0,0011.34,0005.79,0005.19
2023-07-09 14:22:00,SystemResetWarning,0832.0,5.00,000.00,030.0,028.6,000.0,038.5,031.4,32.2,0000.0,0010.87,0005.80,0005.21
2023-07-09 14:23:00,SystemResetWarning,0831.8,4.99,000.00,030.0,028.6,000.0,038.5,031.5,32.4,0000.0,0010.72,0005.83,0005.22
2023-07-09 14:24:00,SystemResetWarning,0831.8,4.99,000.00,030.0,027.4,000.0,038.4,031.4,32.5,0000.0,0010.45,0005.84,0005.23
2023-07-09 14:25:00,SystemResetWarning,0831.7,5.01,000.00,029.9,025.7,000.0,038.3,031.2,33.5,0000.0,0010.63,0005.85,0005.24
2023-07-09 14:26:00,SystemResetWarning,0832.0,5.01,000.00,029.8,025.2,000.0,038.2,030.9,33.4,-002.7,0010.91,0005.88,0005.24
2023-07-09 14:27:00,SystemResetWarning,0832.2,5.01,000.00,029.7,025.4,000.0,038.2,030.7,34.3,-000.7,0011.01,0005.86,0005.24
2023-07-09 14:28:00,SystemResetWarning,0831.9,5.00,000.00,029.6,025.8,000.0,038.2,030.7,33.8,-001.0,0011.45,0005.85,0005.23
2023-07-09 14:29:00,SystemResetWarning,0831.8,4.99,000.00,029.6,026.3,000.0,038.2,030.8,33.7,-003.0,0011.96,0005.88,0005.23
2023-07-09 14:30:00,SystemResetWarning,0831.9,5.01,000.00,029.6,026.6,000.0,038.2,030.8,33.6,-002.4,0011.89,0005.90,0005.23
2023-07-09 14:31:00,SystemResetWarning,0831.9,5.01,000.00,029.6,027.0,000.0,038.2,030.9,34.1,-001.3,0011.65,0005.94,0005.23
2023-07-09 14:32:00,SystemResetWarning,0831.9,4.98,000.00,029.6,027.3,000.0,038.2,030.9,33.9,0000.0,0011.37,0005.99,0005.25
2023-07-09 14:33:00,SystemResetWarning,0831.8,5.00,000.00,029.6,027.5,000.0,038.2,031.0,33.6,-000.5,0012.44,0005.99,0005.26
2023-07-09 14:34:00,SystemResetWarning,0831.8,5.01,000.00,029.6,027.7,000.0,038.2,031.0,33.5,0000.0,0012.06,0005.97,0005.26
2023-07-09 14:35:00,SystemResetWarning,0831.9,5.01,000.00,029.6,027.9,000.0,038.2,031.1,33.8,0000.0,0012.52,0006.02,0005.28
2023-07-09 14:36:00,SystemResetWarning,0831.8,5.00,000.00,029.6,028.0,000.0,038.2,031.1,33.7,0000.0,0012.98,0006.01,0005.28
2023-07-09 14:37:00,SystemResetWarning,0831.8,4.99,000.00,029.6,028.1,000.0,038.2,031.2,33.6,0000.0,0012.80,0006.01,0005.30
2023-07-09 14:38:00,SystemResetWarning,0831.9,4.99,000.00,029.7,028.2,000.0,038.2,031.2,34.1,0000.0,0012.67,0006.03,0005.31
2023-07-09 14:39:00,SystemResetWarning,0831.9,5.02,000.00,029.7,028.3,000.0,038.2,031.2,33.2,0000.0,0012.38,0006.06,0005.33
2023-07-09 14:40:00,SystemResetWarning,0831.9,5.00,000.00,029.7,028.4,000.0,038.2,031.3,32.9,0000.0,0011.93,0006.04,0005.33
2023-07-09 14:41:00,SystemResetWarning,0831.9,5.00,000.00,029.7,028.5,000.0,038.2,031.3,33.1,0000.0,0011.97,0006.05,0005.34
2023-07-09 14:42:00,SystemResetWarning,0832.0,4.99,000.00,029.8,028.5,000.0,038.2,031.3,34.3,0000.0,0012.20,0006.03,0005.34
2023-07-09 14:43:00,SystemResetWarning,0831.9,4.99,000.00,029.8,028.4,000.0,038.2,031.4,34.2,0000.0,0012.39,0006.04,0005.35
2023-07-09 14:44:00,SystemResetWarning,0831.9,5.00,000.00,029.8,026.8,000.0,038.1,031.2,34.1,0000.0,0011.55,0006.07,0005.35
2023-07-09 14:45:00,SystemResetWarning,0831.9,5.01,000.00,029.7,025.5,000.0,038.0,031.0,34.3,0000.0,0012.18,0006.08,0005.34
2023-07-09 14:46:00,SystemResetWarning,0831.9,5.01,000.00,029.6,025.3,000.0,037.9,030.8,33.9,0000.0,0012.79,0006.06,0005.35
2023-07-09 14:47:00,SystemResetWarning,0831.9,5.01,000.00,029.5,025.6,000.0,038.0,030.6,34.1,0000.0,0012.25,0006.08,0005.36
2023-07-09 14:48:00,SystemResetWarning,0832.0,4.99,000.00,029.4,026.0,000.0,038.0,030.7,34.4,0000.0,0012.66,0006.08,0005.36
2023-07-09 14:49:00,SystemResetWarning,0831.9,5.00,000.00,029.4,026.4,000.0,038.0,030.7,34.4,0000.0,0012.87,0006.11,0005.38
2023-07-09 14:50:00,SystemResetWarning,0831.9,5.00,000.00,029.4,026.8,000.0,038.0,030.8,33.8,0000.0,0012.82,0006.14,0005.39
2023-07-09 14:51:00,SystemResetWarning,0832.0,5.01,000.00,029.4,027.1,000.0,038.0,030.8,33.4,0000.0,0012.77,0006.17,0005.42
2023-07-09 14:52:00,SystemResetWarning,0832.0,4.99,000.00,029.4,027.3,000.0,038.0,030.9,33.5,0000.0,0012.76,0006.20,0005.45
2023-07-09 14:53:00,SystemResetWarning,0832.0,5.00,000.00,029.4,027.6,000.0,038.0,030.9,33.3,0000.0,0012.64,0006.21,0005.47
2023-07-09 14:54:00,SystemResetWarning,0832.0,5.00,000.00,029.5,027.7,000.0,038.0,031.0,33.3,0000.0,0013.02,0006.20,0005.49
2023-07-09 14:55:00,SystemResetWarning,0832.0,5.02,000.00,029.5,027.9,000.0,038.0,031.0,32.6,0000.0,0012.73,0006.21,0005.53
2023-07-09 14:56:00,SystemResetWarning,0832.0,4.99,000.00,029.5,028.0,000.0,038.0,031.1,32.8,0000.0,0012.17,0006.27,0005.56
2023-07-09 14:57:00,SystemResetWarning,0832.0,4.99,000.00,029.5,028.2,000.0,038.0,031.1,33.2,0000.0,0011.37,0006.27,0005.57
2023-07-09 14:58:00,SystemResetWarning,0832.0,5.02,000.00,029.6,028.3,000.0,038.1,031.1,33.8,0000.0,0011.31,0006.24,0005.57
2023-07-09 14:59:00,SystemResetWarning,0832.0,5.01,000.00,029.6,028.3,000.0,038.1,031.2,33.7,0000.0,0010.82,0006.23,0005.57
